Weather in Gorodenka

Ukraine / Ivano-Frankovsk District     48°40′33″N   25°29′45″E
temp.,
°C
wind,
m/s
gust,
m/s
humid.,
%
clouds,
%
prec.,
mm/h
press.,
hPa
HPBL,
m
19 april, mon
mon1900:00+8wsw1170100 0.0 101811
03:00+7w1175100 0.0 101711
06:00+6w1179100 0.0 101610
09:00+8w1172100 0.0 1016206
12:00+11ene1162100 0.1 10151018
15:00+12ene3258100 0.5 10141211
18:00+10ese4470100 0.6 1014589
21:00+9sse2381100 1.1 1014100
20 april, tue
tue2000:00+8ene1283100 0.2 101470
03:00+7ne3592100 0.9 1013348
06:00+7n2387100 0.7 1012153
09:00+8nne357754 1.1 1013388
12:00+11nne225892 1.0 10121229
15:00+12w235090 2.3 10111524
18:00+12nnw345163 1.1 10101555
21:00+9n3474100 1.4 101270
21 april, wed
wed2100:00+8wsw3580100 0.3 1012148
03:00+7wnw4889100 0.7 1013251
06:00+6wnw369185 0.1 1013168
09:00+8wnw467838 0.1 1014395
12:00+13w466064 0.7 10131294
15:00+15wnw464894 1.9 10132209
18:00+14wnw345592 0.1 10131167
21:00+11ssw116031 0.3 101414
22 april, thu
thu2200:00+8sw367322 0.0 101598
03:00+7sw357790 0.0 101597
06:00+7sw4882100 0.1 1016164
09:00+11sw476777 0.1 1016654
12:00+15sw685177 0.0 10151474
15:00+17wsw574523 0.0 10142134
18:00+14wsw355917 0.3 1013218
21:00+11sw37684 0.3 1015124
23 april, fri
fri2300:00+7nw358665 0.0 1015126
03:00+7ese119146 0.0 101444
06:00+6wnw3692100 0.0 1015225
09:00+3nw61197100 0.8 1018432
12:00+4nw4792100 1.1 1020621
15:00+8nw4765100 1.3 10191284
18:00+9nw6864100 0.0 10191000
21:00+6nw51165100 0.0 1021445